Total_Precipitation_Accumulation
1.56 1.58 1.63 1.59 1.58 1.63 1.56 1.50 1.52 1.67 1.73 1.69 1.65 1.67 1.65 1.61 1.67 1.71 1.54 1.65 1.77 1.80 1.81 1.96 2.03 2.11 2.12 2.11 2.24 2.35 2.60 2.84 2.55 2.05 1.93 1.94 2.05 2.03 1.93 1.69 1.49 1.41 1.27
1.59 1.71 1.82 1.87 1.89 1.83 1.62 1.50 1.55 1.64 1.71 1.73 1.72 1.71 1.60 1.61 1.79 1.83 1.72 1.78 1.85 1.82 1.86 1.98 1.89 2.03 2.17 2.16 2.29 2.31 2.41 2.71 2.61 2.35 2.28 2.24 2.24 2.13 2.10 1.89 1.58 1.42 1.35
1.84 2.04 2.24 2.31 2.15 1.95 1.82 1.72 1.73 1.72 1.75 1.83 1.87 1.89 1.88 1.89 1.88 1.93 2.02 1.99 1.90 1.82 1.88 1.87 1.84 2.03 2.05 2.15 2.27 2.25 2.23 2.38 2.55 2.47 2.42 2.50 2.48 2.35 2.25 2.07 1.88 1.80 1.51
1.59 1.89 2.10 2.21 2.06 1.97 1.93 1.80 1.73 1.75 1.83 1.95 1.95 2.07 2.23 2.29 2.27 2.20 2.11 2.05 1.99 1.92 1.89 1.85 1.84 1.88 1.91 1.99 2.11 2.20 2.27 2.39 2.50 2.52 2.57 2.71 2.68 2.70 2.64 2.41 2.28 2.20 1.90
1.40 1.54 1.79 2.04 1.88 1.63 1.57 1.54 1.52 1.62 1.75 2.03 2.16 2.22 2.47 2.61 2.46 2.46 2.38 2.28 2.26 2.09 1.97 1.87 1.77 1.78 1.83 1.87 1.84 1.94 2.07 2.21 2.23 2.32 2.39 2.60 2.67 2.78 2.77 2.61 2.47 2.43 2.24
1.29 1.43 1.61 1.73 1.59 1.41 1.30 1.33 1.37 1.48 1.65 1.82 1.95 2.07 2.12 1.98 2.13 2.14 2.13 2.16 2.19 2.09 2.02 1.95 1.81 1.71 1.68 1.64 1.55 1.56 1.64 1.74 1.90 2.12 2.20 2.41 2.60 2.75 2.93 3.00 2.84 2.64 2.47
1.27 1.32 1.46 1.58 1.58 1.47 1.31 1.31 1.37 1.46 1.60 1.70 1.73 1.80 1.77 1.82 1.84 1.63 1.58 1.56 1.72 1.83 1.90 1.89 1.67 1.53 1.61 1.54 1.56 1.52 1.51 1.60 1.69 1.92 2.10 2.20 2.41 2.61 2.83 2.96 2.95 2.84 2.64
1.28 1.37 1.54 1.71 1.73 1.67 1.60 1.54 1.61 1.67 1.66 1.62 1.65 1.70 1.77 1.76 1.67 1.45 1.44 1.41 1.54 1.65 1.73 1.77 1.74 1.67 1.67 1.70 1.62 1.50 1.42 1.49 1.58 1.56 1.60 1.75 2.01 2.35 2.53 2.57 2.69 2.70 2.56
1.50 1.54 1.61 1.76 1.83 1.85 1.91 1.95 1.98 1.95 1.82 1.74 1.78 1.84 1.84 1.78 1.66 1.47 1.47 1.42 1.53 1.57 1.58 1.61 1.63 1.58 1.65 1.54 1.43 1.42 1.41 1.44 1.42 1.40 1.36 1.41 1.55 1.76 2.09 2.24 2.32 2.28 2.17
1.58 1.73 1.77 1.92 2.03 2.02 2.11 2.22 2.28 2.29 2.21 2.20 2.11 2.01 1.90 1.80 1.76 1.48 1.40 1.35 1.44 1.50 1.58 1.56 1.50 1.37 1.34 1.29 1.28 1.39 1.37 1.35 1.39 1.34 1.26 1.19 1.15 1.29 1.59 1.77 1.85 1.89 1.80
1.71 1.79 1.86 2.06 2.24 2.37 2.52 2.62 2.59 2.56 2.59 2.53 2.32 2.18 2.13 2.07 1.90 1.47 1.30 1.24 1.31 1.48 1.54 1.54 1.44 1.37 1.19 1.16 1.15 1.19 1.22 1.19 1.26 1.29 1.26 1.23 1.23 1.23 1.28 1.43 1.62 1.73 1.70
1.81 1.93 2.08 2.19 2.24 2.34 2.63 2.72 2.71 2.66 2.56 2.41 2.26 2.06 1.95 1.91 1.75 1.47 1.27 1.29 1.41 1.49 1.51 1.48 1.47 1.35 1.14 1.08 1.01 1.00 1.02 0.95 0.98 1.09 1.08 1.04 1.05 1.05 1.09 1.22 1.42 1.56 1.64
1.82 2.00 2.16 2.26 2.42 2.59 2.71 2.66 2.58 2.55 2.47 2.33 2.19 2.00 1.95 2.03 1.96 1.64 1.42 1.41 1.43 1.37 1.38 1.42 1.36 1.22 1.03 0.89 0.88 0.86 0.79 0.77 0.86 0.96 0.97 0.90 0.87 0.91 1.01 1.16 1.31 1.44 1.48
1.65 1.79 1.92 1.98 2.04 2.19 2.37 2.32 2.20 2.19 2.24 2.22 2.16 2.05 2.00 2.02 2.00 1.74 1.51 1.48 1.46 1.41 1.34 1.31 1.18 1.11 0.97 0.87 0.88 0.81 0.74 0.80 0.89 0.92 0.95 0.96 0.92 0.95 0.98 1.04 1.15 1.26 1.33
1.46 1.52 1.58 1.62 1.71 1.83 1.93 2.00 1.97 1.95 1.90 1.90 1.88 1.86 1.78 1.74 1.78 1.63 1.48 1.52 1.58 1.58 1.51 1.43 1.31 1.21 1.07 0.97 0.96 0.98 0.99 1.05 1.03 1.01 1.06 1.11 1.08 1.01 0.98 1.01 1.14 1.19 1.15
1.52 1.48 1.46 1.50 1.55 1.58 1.65 1.66 1.64 1.53 1.41 1.31 1.25 1.24 1.23 1.28 1.39 1.31 1.24 1.30 1.39 1.46 1.39 1.32 1.28 1.20 1.11 1.11 1.14 1.16 1.15 1.15 1.12 1.13 1.15 1.18 1.18 1.09 1.00 1.00 1.10 1.16 1.10
1.65 1.54 1.47 1.41 1.40 1.42 1.46 1.51 1.52 1.38 1.19 1.03 0.93 0.88 0.88 0.95 1.04 1.05 1.06 1.15 1.26 1.35 1.31 1.32 1.29 1.26 1.19 1.16 1.19 1.19 1.16 1.15 1.18 1.19 1.20 1.21 1.25 1.24 1.20 1.14 1.12 1.17 1.16
1.73 1.61 1.48 1.37 1.32 1.31 1.33 1.35 1.42 1.48 1.37 1.18 0.97 0.82 0.76 0.74 0.77 0.87 0.98 1.10 1.22 1.25 1.23 1.28 1.27 1.25 1.22 1.19 1.15 1.16 1.15 1.17 1.17 1.17 1.20 1.23 1.29 1.31 1.32 1.24 1.17 1.14 1.16
1.52 1.44 1.34 1.29 1.28 1.26 1.28 1.28 1.26 1.31 1.31 1.25 1.10 0.93 0.81 0.74 0.74 0.84 0.87 0.93 1.11 1.19 1.19 1.18 1.15 1.11 1.08 1.08 1.06 1.04 1.03 1.04 1.07 1.13 1.14 1.15 1.21 1.20 1.16 1.13 1.14 1.14 1.15
1.49 1.43 1.30 1.24 1.27 1.27 1.24 1.24 1.21 1.27 1.27 1.27 1.15 0.98 0.85 0.75 0.73 0.78 0.80 0.93 1.11 1.14 1.11 1.07 1.07 1.04 1.04 1.03 1.03 1.01 1.00 1.01 1.05 1.14 1.15 1.15 1.17 1.16 1.10 1.10 1.15 1.17 1.15
1.44 1.37 1.23 1.16 1.17 1.21 1.24 1.22 1.17 1.18 1.19 1.23 1.13 0.92 0.80 0.72 0.75 0.80 0.88 1.01 1.10 1.06 1.03 1.00 0.98 0.94 0.92 0.92 0.94 0.96 1.00 1.05 1.07 1.11 1.15 1.17 1.20 1.19 1.14 1.15 1.19 1.24 1.24
1.42 1.35 1.20 1.04 1.01 1.06 1.10 1.12 1.11 1.09 1.09 1.12 1.04 0.83 0.72 0.63 0.69 0.78 0.86 0.94 0.98 0.98 0.96 0.96 0.91 0.83 0.82 0.84 0.88 0.95 1.00 1.02 1.06 1.13 1.16 1.19 1.24 1.21 1.21 1.23 1.24 1.27 1.32
1.29 1.21 1.10 0.93 0.89 0.95 1.00 1.07 1.06 1.00 0.99 0.98 0.89 0.76 0.71 0.73 0.76 0.83 0.90 0.94 0.96 0.99 0.97 0.92 0.86 0.81 0.81 0.82 0.85 0.91 0.97 1.01 1.01 1.05 1.10 1.15 1.21 1.23 1.27 1.26 1.23 1.27 1.29
1.09 1.10 1.07 0.90 0.85 0.97 1.05 1.11 1.06 0.96 0.94 0.90 0.82 0.80 0.81 0.84 0.84 0.84 0.87 0.92 0.94 0.93 0.92 0.89 0.82 0.78 0.77 0.80 0.83 0.84 0.87 0.89 0.90 0.95 0.99 1.05 1.12 1.17 1.21 1.21 1.21 1.22 1.26
1.00 1.00 1.04 0.92 0.84 0.92 1.00 1.04 1.01 0.93 0.87 0.81 0.77 0.80 0.82 0.80 0.82 0.84 0.86 0.90 0.89 0.86 0.82 0.78 0.80 0.81 0.80 0.80 0.82 0.83 0.85 0.77 0.73 0.75 0.80 0.89 0.94 1.02 1.06 1.05 1.08 1.15 1.20
0.94 0.93 0.97 0.95 0.90 0.94 1.01 1.02 1.01 0.93 0.88 0.81 0.78 0.77 0.79 0.79 0.80 0.81 0.81 0.81 0.81 0.81 0.79 0.77 0.76 0.74 0.74 0.72 0.68 0.67 0.63 0.57 0.55 0.61 0.65 0.71 0.79 0.88 0.91 0.91 0.91 0.98 1.07